Location: Casilda
(33.0440°S, 61.1680°W)
Time: 17:46:30
(UTC-03:00)

ISS - Pass Details

Date: 20 October 2018
Orbit: 403 x 408 km, 51.6° (Epoch: 17 October)

Event Time Altitude Azimuth Distance (km) Brightness Sun altitude
Exits shadow 03:41:20 12° 106° (ESE) 1,366 -0.4 -30.4°
Drops below altitude 10° 03:41:44 10° 101° (E) 1,473 -0.3 -30.3°
Sets 03:44:16 0° 80° (E) 2,327 0.6 -29.9°
